[[{"header":{"parameterUnit":"m.s-1","parameterCategory":1,"la1":30.2991,"la2":30.254,"lo1":-89.0895,"lo2":-89.0444,"dy":0.0017,"dx":0.0017,"nx":28,"ny":28,"refTime":"2023-08-07T09:00:00:Z","depth":0,"parameterNumber":2,"parameterNumberName":"U-component_of_WINDS"},"data":[0,0,0,0,0,0,0,0,0,0,0,0,0,0,0,0,0,0,0,0,0,0,0,0,0,0,0,0,0,0,0,0,0,0,0,0,0,0,0,0,0,0,0,0,0,0,0,0,0,0,0,0,0,0,0,0,0,0,4.6303,4.6304,0,4.6409,4.641,4.6411,4.6382,4.638,4.6377,4.6375,4.6488,4.6493,4.6497,0,0,0,0,0,0,0,0,0,0,0,0,0,4.6077,4.6081,4.6302,4.6304,4.6305,4.6409,4.641,4.6412,4.6382,4.638,4.6377,4.6374,4.6486,4.6492,4.6498,0,0,0,0,0,0,0,0,0,0,0,0,0,4.6178,4.6083,4.6302,4.6303,4.6304,4.6408,4.641,4.6412,4.6383,4.6379,4.6376,4.6373,4.6484,4.6491,4.6499,4.661,0,0,4.6522,4.6525,0,0,0,0,0,0,0,0,4.6173,4.6187,4.6301,4.6303,4.6304,4.6379,4.6372,4.6479,4.6384,4.6353,4.6375,4.6372,4.6454,4.6464,4.6491,4.6615,4.662,4.6522,4.6527,4.653,4.6532,0,0,0,0,0,0,0,4.6166,4.6182,4.6345,4.6303,4.6305,4.6299,4.631,4.6392,4.6421,4.6355,4.6353,4.6366,4.6454,4.6484,4.6494,4.6622,4.6522,4.6529,4.6533,4.6536,4.6843,4.6846,0,0,0,0,0,0,4.6157,4.6176,4.6341,4.6348,4.6229,4.6306,4.6318,4.6358,4.642,4.6426,4.6369,4.6364,4.6473,4.6485,4.6497,4.6632,4.653,4.6537,4.6541,4.6839,4.6844,4.6848,0,0,0,0,0,0,4.6152,4.6172,4.6337,4.6262,4.6282,4.6313,4.6359,4.6362,4.6391,4.643,4.6435,4.6394,4.6471,4.6487,4.6582,4.6635,4.654,4.6547,4.6835,4.6841,4.6846,4.6901,0,0,0,0,0,0,4.6146,4.6171,4.6212,4.6263,4.6286,4.6419,4.6362,4.6366,4.6404,4.6399,4.6454,4.646,4.6469,4.6571,4.659,4.6644,4.6553,4.683,4.6838,4.6844,4.6895,4.6908,4.6919,0,0,0,0,0,4.6138,4.6225,4.6215,4.6235,4.6339,4.6422,4.6436,4.6443,4.6408,4.6451,4.6476,4.6459,4.6626,4.6581,4.6602,4.6659,4.6827,4.6836,4.6843,4.6889,4.6905,4.6919,0,0,0,0,0,0,4.6181,4.6231,4.6221,4.6326,4.637,4.6417,4.6471,4.646,4.6516,4.6509,4.6517,4.653,4.6627,4.6653,4.6601,4.677,4.6722,4.6735,4.675,4.6765,4.6777,4.6769,4.6559,0,0,0,0,0,4.6202,4.6264,4.6305,4.6394,4.6417,4.644,4.6477,4.6479,4.6525,4.6544,4.6575,4.6622,4.6685,4.6727,4.6787,4.6898,4.691,4.6948,4.696,4.697,4.6981,4.7042,4.7059,4.6875,4.6874,4.6874,0,0,4.6247,4.6283,4.6322,4.6404,4.6438,4.6503,4.6456,4.6527,4.6576,4.6555,4.6646,4.6671,4.6724,4.6828,4.6875,4.6852,4.7034,4.698,4.6988,4.6994,4.7052,4.7069,4.7085,4.688,4.6879,4.6878,0,0,4.6363,4.6396,4.6473,4.6508,4.656,4.6575,4.6594,4.6643,4.6659,4.675,4.6736,4.6795,4.6903,4.6941,4.6975,4.7105,4.7092,4.7125,4.7188,4.7248,4.7262,4.7275,4.7321,4.7338,4.7136,4.7136,4.7136,0,4.6413,4.6509,4.6515,4.6587,4.6623,4.6607,4.6686,4.672,4.679,4.6816,4.6789,4.6925,4.6959,4.7071,4.7103,4.7131,4.7153,4.7118,4.7259,4.7272,4.7285,4.7329,4.7346,4.7139,4.7139,4.7139,4.7138,0,4.6568,4.6635,4.6692,4.6758,4.6801,4.6877,4.6894,4.6938,4.6936,4.6955,4.7049,4.7089,4.7157,4.7184,4.7184,4.7297,4.7281,4.7257,4.7208,4.7306,4.7347,4.7364,4.7145,4.7143,4.7142,4.7141,0,0,4.6713,4.6781,4.6802,4.6832,4.6888,4.6941,4.7016,4.7081,4.7118,4.7168,4.7231,4.7323,4.7301,4.7339,4.7343,4.7395,4.7496,4.7365,4.7366,4.7387,4.7623,4.764,4.766,4.7487,4.749,4.7493,4.7618,0,4.6833,4.6963,4.697,4.7089,4.7152,4.7137,4.7202,4.7245,4.7264,4.7321,4.7342,4.7408,4.7374,4.7396,4.7447,4.7473,4.7543,4.7464,4.7547,4.755,4.7533,4.7682,4.77,4.7816,4.7635,4.7637,4.7639,0,4.699,4.7043,4.7167,4.7215,4.7241,4.73,4.7361,4.7415,4.7463,4.7473,4.7516,4.7512,4.759,4.7539,4.7647,4.7593,4.7628,4.7645,4.765,4.7658,4.76,4.7693,4.7854,4.7871,4.7665,4.7663,4.7661,0,4.7083,4.7185,4.7273,4.7299,4.7357,4.7398,4.7425,4.7469,4.7508,4.7562,4.7587,4.765,4.7684,4.7733,4.7747,4.7708,4.7854,4.7804,4.7865,4.7865,4.7896,4.7894,4.8064,4.7919,4.7919,4.7919,4.7919,0,4.7216,4.7293,4.7315,4.7369,4.7455,4.7463,4.7548,4.7572,4.7612,4.7671,4.7663,4.7719,4.7734,4.7793,4.7804,4.7892,4.7907,4.7918,4.792,4.7919,4.7917,4.7941,4.7933,4.7924,4.7922,4.7922,4.7921,0,4.7334,4.7352,4.7446,4.7493,4.7507,4.7568,4.7609,4.7661,4.7679,4.7754,4.7772,4.7801,4.787,4.7888,4.7971,4.7979,4.8082,4.8077,4.8065,4.8065,4.8124,4.8118,4.8315,4.8342,4.818,4.8182,4.8183,0,4.7417,4.7476,4.7529,4.7567,4.7595,4.7657,4.7696,4.7707,4.7749,4.7808,4.7853,4.7921,4.7975,4.8086,4.8115,4.8179,4.8175,4.824,4.8184,4.8181,4.8175,4.8171,4.8177,4.825,4.8252,4.8253,4.8254,0,4.7563,4.7569,4.7626,4.7686,4.7733,4.7781,4.7827,4.7859,4.7877,4.7924,4.7994,4.8036,4.812,4.8187,4.8252,4.828,4.827,4.8271,4.8289,4.8287,4.8278,4.8283,4.8093,4.8267,4.8265,4.8264,4.8264,4.8263,4.7666,4.7718,4.7763,4.7826,4.7862,4.7905,4.7956,4.798,4.8038,4.8107,4.811,4.8186,4.8233,4.8318,4.8349,4.8409,4.839,4.8415,4.8422,4.8427,4.8432,4.8269,4.8421,4.8421,4.8421,4.842,4.842,0,4.7812,4.784,4.7898,4.7962,4.8012,4.7998,4.8049,4.8092,4.8158,4.8202,4.8255,4.8336,4.8401,4.8435,4.85,4.8542,4.8539,4.8558,4.8555,4.8562,4.8446,4.8424,4.8559,4.8559,4.8559,4.8559,4.8559,4.8559,4.7893,4.7979,4.799,4.8094,4.8122,4.8195,4.8225,4.8265,4.83,4.839,4.8443,4.8465,4.8505,4.8573,4.8633,4.8641,4.8665,4.8687,4.8693,4.8584,4.857,4.8556,4.8536,4.8692,4.8693,4.8804,4.8805,4.8806]},{"header":{"parameterUnit":"m.s-1","parameterCategory":1,"la1":30.2991,"la2":30.254,"lo1":-89.0895,"lo2":-89.0444,"dy":0.0017,"dx":0.0017,"nx":28,"ny":28,"refTime":"2023-08-07T09:00:00:Z","depth":0,"parameterNumber":3,"parameterNumberName":"V-component_of_WINDS"},"data":[0,0,0,0,0,0,0,0,0,0,0,0,0,0,0,0,0,0,0,0,0,0,0,0,0,0,0,0,0,0,0,0,0,0,0,0,0,0,0,0,0,0,0,0,0,0,0,0,0,0,0,0,0,0,0,0,0,0,1.9893,1.9893,0,1.9902,1.9902,1.9902,1.9885,1.9884,1.9883,1.9883,1.9892,1.9893,1.9893,0,0,0,0,0,0,0,0,0,0,0,0,0,1.9859,1.986,1.9893,1.9893,1.9893,1.9902,1.9902,1.9902,1.9885,1.9884,1.9883,1.9883,1.9892,1.9893,1.9893,0,0,0,0,0,0,0,0,0,0,0,0,0,1.9871,1.986,1.9893,1.9885,1.9885,1.9902,1.9902,1.9902,1.9885,1.9884,1.9883,1.9882,1.9891,1.9892,1.9894,1.9918,0,0,1.9897,1.9898,0,0,0,0,0,0,0,0,1.9871,1.9873,1.9886,1.9886,1.9885,1.9891,1.9893,1.9907,1.9885,1.9885,1.9883,1.9882,1.9892,1.9893,1.9897,1.9918,1.9919,1.9897,1.9898,1.9898,1.9899,0,0,0,0,0,0,0,1.987,1.9872,1.9896,1.9886,1.9886,1.9881,1.9882,1.9896,1.9893,1.9885,1.9884,1.9885,1.9892,1.9896,1.9897,1.9919,1.9897,1.9898,1.9899,1.9899,1.996,1.9961,0,0,0,0,0,0,1.987,1.9871,1.9896,1.9896,1.9876,1.9882,1.9883,1.989,1.9893,1.9893,1.9886,1.9884,1.9894,1.9896,1.9897,1.9925,1.9898,1.99,1.99,1.9959,1.996,1.9961,0,0,0,0,0,0,1.9869,1.9872,1.9896,1.9884,1.9886,1.9884,1.9892,1.9891,1.9895,1.9894,1.9893,1.989,1.9894,1.9896,1.9913,1.9925,1.99,1.9901,1.9958,1.9959,1.9961,1.9982,0,0,0,0,0,0,1.9868,1.9872,1.9882,1.9884,1.9887,1.9911,1.9892,1.9892,1.9897,1.9895,1.9898,1.9898,1.9893,1.9911,1.9914,1.9927,1.9902,1.9957,1.9958,1.996,1.998,1.9984,1.9987,0,0,0,0,0,1.9867,1.9888,1.9882,1.9885,1.9899,1.9912,1.9914,1.9908,1.9898,1.9907,1.9906,1.9897,1.9924,1.9913,1.9916,1.9929,1.9956,1.9958,1.996,1.9979,1.9983,1.9987,0,0,0,0,0,0,1.9887,1.9888,1.9882,1.9904,1.9908,1.9909,1.9921,1.9914,1.9921,1.9919,1.9912,1.9912,1.9931,1.9932,1.992,1.9953,1.9938,1.9941,1.9951,1.9956,1.9959,1.9958,1.9903,0,0,0,0,0,1.9894,1.9905,1.9905,1.9924,1.9926,1.9923,1.9929,1.9924,1.9928,1.993,1.993,1.9935,1.9943,1.995,1.9958,1.998,1.998,1.9991,1.9994,1.9997,2.0,2.0011,2.0015,1.9968,1.9968,1.9968,0,0,1.9908,1.991,1.9918,1.9928,1.9931,1.9942,1.9925,1.9938,1.9945,1.9932,1.9948,1.9948,1.9952,1.9972,1.9981,1.9973,2.0013,2.0,2.0002,2.0003,2.0013,2.0018,2.0022,1.9969,1.9969,1.9969,0,0,1.994,1.9943,1.9959,1.9962,1.9966,1.9964,1.9967,1.9969,1.9969,1.9985,1.9975,1.9984,2.0,2.0003,2.0007,2.0039,2.003,2.0041,2.006,2.0071,2.0075,2.0078,2.0089,2.0093,2.0044,2.0044,2.0044,0,1.9958,1.9974,1.9968,1.9981,1.9985,1.9973,1.9989,1.9992,1.9999,2.0002,1.9994,2.0013,2.0015,2.0035,2.0042,2.0046,2.005,2.0041,2.0075,2.0078,2.0081,2.0091,2.0095,2.0045,2.0045,2.0045,2.0045,0,1.9995,2.0006,2.0018,2.0025,2.0031,2.0045,2.0041,2.0047,2.0042,2.004,2.0056,2.0058,2.0066,2.0071,2.0066,2.009,2.0085,2.0076,2.0061,2.0087,2.0096,2.01,2.0047,2.0047,2.0046,2.0046,0,0,2.004,2.0042,2.0047,2.0049,2.0052,2.0061,2.0074,2.0082,2.0088,2.0093,2.0103,2.0117,2.0108,2.0112,2.0107,2.0117,2.0141,2.0106,2.0106,2.0112,2.0167,2.0173,2.0178,2.0136,2.0136,2.0137,2.0166,0,2.0071,2.0094,2.0088,2.0111,2.0121,2.0109,2.0121,2.0124,2.0123,2.0131,2.0129,2.0138,2.0126,2.0129,2.0138,2.0136,2.0152,2.0134,2.0145,2.0146,2.0144,2.0183,2.019,2.0218,2.017,2.0171,2.0171,0,2.011,2.0116,2.014,2.0141,2.0145,2.0155,2.0161,2.0169,2.0172,2.0171,2.0175,2.0168,2.0181,2.0166,2.0183,2.0171,2.0175,2.0175,2.0176,2.0176,2.016,2.0184,2.0226,2.023,2.0177,2.0176,2.0176,0,2.014,2.0154,2.0169,2.0172,2.0174,2.0181,2.0182,2.0184,2.0189,2.0194,2.0197,2.0204,2.0208,2.0213,2.0208,2.0198,2.0226,2.0211,2.0224,2.0224,2.023,2.023,2.0273,2.0234,2.0234,2.0234,2.0233,0,2.0175,2.0189,2.0183,2.0192,2.0208,2.0201,2.0217,2.0217,2.0219,2.0228,2.0218,2.0227,2.022,2.0228,2.0224,2.0238,2.024,2.0239,2.0237,2.0239,2.0239,2.0242,2.0239,2.0235,2.0234,2.0234,2.0234,0,2.021,2.0206,2.0223,2.0223,2.0223,2.0235,2.0235,2.0243,2.0241,2.0252,2.0255,2.0251,2.026,2.0255,2.0264,2.0262,2.028,2.0276,2.0279,2.0278,2.0292,2.029,2.0338,2.0343,2.03,2.0301,2.0301,0,2.0233,2.0244,2.0245,2.025,2.0252,2.026,2.0265,2.0259,2.0264,2.0268,2.0276,2.0284,2.0289,2.0304,2.0302,2.0309,2.0305,2.0321,2.0306,2.0307,2.0304,2.0304,2.0304,2.0324,2.0324,2.0325,2.0325,0,2.0273,2.027,2.0277,2.0283,2.0289,2.0294,2.0298,2.0303,2.0296,2.0302,2.0311,2.0316,2.0325,2.0332,2.0338,2.0339,2.0331,2.033,2.0333,2.0335,2.0336,2.0335,2.0287,2.0329,2.0328,2.0328,2.0328,2.0328,2.0302,2.0311,2.0313,2.0321,2.0323,2.0327,2.0334,2.0333,2.034,2.0347,2.0343,2.0353,2.0355,2.0361,2.0363,2.037,2.0364,2.0369,2.037,2.0372,2.0373,2.0335,2.0372,2.0371,2.0371,2.0371,2.0371,0,2.0341,2.0341,2.0349,2.0354,2.036,2.0352,2.0356,2.0362,2.0371,2.0373,2.0379,2.0389,2.0396,2.0394,2.0401,2.0407,2.0403,2.0409,2.0408,2.0408,2.0379,2.0375,2.0412,2.0412,2.0412,2.0412,2.0412,2.0412,2.0362,2.0376,2.0374,2.0389,2.0389,2.0399,2.0401,2.0404,2.0406,2.0417,2.0423,2.0422,2.0423,2.0429,2.0435,2.0435,2.0437,2.0444,2.0442,2.0414,2.041,2.0407,2.0403,2.0445,2.0445,2.0471,2.0471,2.0471]}]]